Address 0xaac6ca3a144d53fb6215d97f84ca2b4ff27055d8

 
Txn Hash
Block
From
To
Value [Txn Fee]
0xa9ab67e74230ce91cd3c828a66fd32fb0c746c94a4bd217d96674a294e714e2d72396302021-05-08 10:17:4937 days 1 hr ago0xaac6ca3a144d53fb6215d97f84ca2b4ff27055d8OUT0x091dbc6b823ff73fa9d867da66deb407591120a50.047777051183918 BNB0.000105
0xe1feda989289ed7255dc7ea712171cb8bb375bfcb4b4f4893531d4e889cfe57371263472021-05-04 9:55:2841 days 1 hr ago0xaac6ca3a144d53fb6215d97f84ca2b4ff27055d8OUT0xab3c96d5492a54014e604bda3bff6f6c4157f6fa0.2 BNB0.000105
0x35c8338e0d9a033e0270459a93b40f973c397a719087f2403f10065df535344a70737442021-05-02 13:32:1942 days 22 hrs ago0xaac6ca3a144d53fb6215d97f84ca2b4ff27055d8OUT 0xfcce5d9601382c7a10b271bbeb9a797ccbb0ed080 BNB0.000741885
0xad8d8a2dfc474e51af02aeb7707adc5f537ed99981e97eab9a93b199f5bd697d70736942021-05-02 13:29:4642 days 22 hrs ago0xaac6ca3a144d53fb6215d97f84ca2b4ff27055d8OUT 0xfcce5d9601382c7a10b271bbeb9a797ccbb0ed080 BNB0.000251695
0x00e3b59fa8e05bace91d105aa5f7cc984f2bfe7aa8f8aa76cf77738e06ed448770736872021-05-02 13:29:2442 days 22 hrs ago0xaac6ca3a144d53fb6215d97f84ca2b4ff27055d8OUT 0xaafa25bc2de06a073a8313144c1d887c989ce4d20 BNB0.00025643
0x501c825187fd9910debf9df430e956f3752649ece210078a554c9c888748ca5770736292021-05-02 13:26:0642 days 22 hrs ago0xaac6ca3a144d53fb6215d97f84ca2b4ff27055d8OUT Contract Creation0 BNB0.0160824
0xc2e410abfa66306732ef4a26debd356c7c84e411a6ae67c8f071d80cca9dad3c70736152021-05-02 13:25:1742 days 22 hrs ago0xaac6ca3a144d53fb6215d97f84ca2b4ff27055d8OUT Contract Creation0 BNB0.01866203
0x3d0aa254858117fcd80f64df4417ba618f95132403cdaada3d68283c7916ddfa66486042021-04-17 15:49:1157 days 20 hrs ago0xaac6ca3a144d53fb6215d97f84ca2b4ff27055d8OUT 0x833ba1ab69309dc6202826800968921f0fdc168c0.02 BNB0.00066596
0x26600df3cf16653cdd4a72ee01b7fd59c59050bfb72dfde6379fbbb9043a220966486002021-04-17 15:48:5957 days 20 hrs ago0xaac6ca3a144d53fb6215d97f84ca2b4ff27055d8OUT Veraswap: VRAP Token0 BNB0.00015552
0xf555ee9198b31230355813d0270cd58dfee0a470d32b781da21755e93277ce7566485872021-04-17 15:48:2057 days 20 hrs ago0xaac6ca3a144d53fb6215d97f84ca2b4ff27055d8OUT 0x833ba1ab69309dc6202826800968921f0fdc168c0 BNB0.00061866
0x36ba869768d5200a9646f590a283301d9f71e23ce4bc31797ae74dce26b22d8166484672021-04-17 15:42:2057 days 20 hrs ago0xaac6ca3a144d53fb6215d97f84ca2b4ff27055d8OUT 0x833ba1ab69309dc6202826800968921f0fdc168c0 BNB0.00277392
0xbc18b33a22b1ad875a425a44676974033fb9c61a96de4ce65bcc8bce6dfadeb566483942021-04-17 15:38:4157 days 20 hrs ago0xaac6ca3a144d53fb6215d97f84ca2b4ff27055d8OUT0x09fd985d1d7fb17cb07e7346988cb53e9e0d28420.3 BNB0.00063
0xf358f3ff4427ac998cac8b20fd6d70a54c9da0a95d5d0dd7825225399734a32366390582021-04-17 7:51:5358 days 4 hrs ago0xaac6ca3a144d53fb6215d97f84ca2b4ff27055d8OUT 0x833ba1ab69309dc6202826800968921f0fdc168c0 BNB0.000727575
0x65f57175d5caf2aefa5857c86ac5870c66a0bb65be9cd7f274fc9070a1d4c06766390542021-04-17 7:51:4158 days 4 hrs ago0xaac6ca3a144d53fb6215d97f84ca2b4ff27055d8OUT 0x272fd142b0fee2ceaab79e55aef7c002106dc8570 BNB0.00014577
0xbf265f054216149d808ee6dba97a56cd2960f650995899f2e725ab1d1e038ef466390492021-04-17 7:51:2658 days 4 hrs ago0xaac6ca3a144d53fb6215d97f84ca2b4ff27055d8OUT 0x833ba1ab69309dc6202826800968921f0fdc168c0 BNB0.000877635
0x1b943352d0e96d78e6798d336e0fa27a7425d7f00e7ecb285096f5e867a5e69d66390422021-04-17 7:51:0558 days 4 hrs ago0xaac6ca3a144d53fb6215d97f84ca2b4ff27055d8OUT 0x272fd142b0fee2ceaab79e55aef7c002106dc8570 BNB0.00022077
0x96245b59844d858321e309cfed509571021e8d71d29e1c1c54d0a1fd1e0ada5266389832021-04-17 7:48:0858 days 4 hrs ago0xaac6ca3a144d53fb6215d97f84ca2b4ff27055d8OUT 0x833ba1ab69309dc6202826800968921f0fdc168c0 BNB0.01718016
0xfb6d641a31f16b758e5c55369f178a6b528077160218c93238f99e259f62285f66389782021-04-17 7:47:5358 days 4 hrs ago0xaac6ca3a144d53fb6215d97f84ca2b4ff27055d8OUT Veraswap: VRAP Token0 BNB0.00023046
0x29716bc5623a448a45bf09639f621f4c78cede1ba630d27c657f85afbbdc999f66389662021-04-17 7:47:1758 days 4 hrs ago0xaac6ca3a144d53fb6215d97f84ca2b4ff27055d8OUT Binance: WBNB Token0 BNB0.00014476
0x9df8b80edc8f9731241572cb2fba0f4bc9846b1bfff60a1bed39628f4124656766389582021-04-17 7:46:5358 days 4 hrs ago0xaac6ca3a144d53fb6215d97f84ca2b4ff27055d8OUT Binance: WBNB Token0 BNB0.0002197
0xc9fd5824cedfeda6eee9de3ab9fbd5980783c3496b39a0a236ae5e7230eced4566388512021-04-17 7:41:3258 days 4 hrs ago0xaac6ca3a144d53fb6215d97f84ca2b4ff27055d8OUT Binance: WBNB Token0.01 BNB0.00021869
0xf2caf7fc0419a605a16a59983acc6c944ce38e009a94771f7f79bc5ee0001c5e66368222021-04-17 6:00:0558 days 5 hrs ago0xaac6ca3a144d53fb6215d97f84ca2b4ff27055d8OUT Binance: BUSD Stablecoin0 BNB0.00144508
0x6e6df1759e0953f96082b156a9379921fe9d408ec8c45c1426eaf8b747b180b062884832021-04-05 0:34:5770 days 11 hrs ago0xaac6ca3a144d53fb6215d97f84ca2b4ff27055d8OUT Binance: BUSD Stablecoin0 BNB0.00623603
0x65c514830098deafb3aebd7ec9b8b240e456f4b0ea0d34153cd16b007cfb92f562072992021-04-02 4:05:4973 days 7 hrs ago0xaac6ca3a144d53fb6215d97f84ca2b4ff27055d8OUT Binance: BUSD Stablecoin0 BNB0.00776948
0x41d288599ab5fb90be8681247622928a7532fecd6173fa5434b629e22a994dbe62072492021-04-02 4:03:1973 days 7 hrs ago0xaac6ca3a144d53fb6215d97f84ca2b4ff27055d8OUT PancakeSwap: Router0.1 BNB0.0011093
[ Download CSV Export 
Parent Txn Hash Block From To Value
Loading

Contract Name:
0 BNB

Compiler Version
0

Optimization Enabled:
0 BNB

Other Settings:
-NA-
Block Transaction Gas Used Reward
Age Block Fee Address BC Fee Address Voting Power Jailed Incoming
Block Uncle Number Difficulty Gas Used Reward
Loading
Loading
Make sure to use the "Vote Down" button for any spammy posts, and the "Vote Up" for interesting conversations.